SCP
0 0 0 0 0 0 0 0 0 0 0 0 0 0 0 0 0 0 0 0 0 0 0 0 0 0 0 0 0 0 0 0 0 0 0 0 0 0 0 0 -0 -0 -0
0 0 0 0 0 0 0 0 0 0 0 0 0 0 0 0 0 0 0 0 0 0 0 0 0 0 0 0 0 0 0 0 0 -0 0 0 -0 -0 -0 0 -0 -0 -0
0 0 0 0 0 0 0 0 0 0 0 0 0 0 0 0 0 0 0 0 0 0 0 0 0 0 0 0 0 0 0 0 0 -0 -0 -0 -0 0 -0 0 0 -0 -0
0 0 0 0 0 0 0 0 0 0 0 0 0 0 0 0 0 0 0 0 0 0 0 0 0 0 0 0 0 0 0 0 -0 -0 -0 -0 0 0 -0 -0 -0 -0 -0
0 0 0 0 0 0 0 0 0 0 0 0 0 0 0 0 0 0 0 0 0 0 0 0 0 0 0 0 0 0 0 -0 -0 -0 -0 -0 0 0 0 -0 0 -0 -0
0 0 0 0 0 0 0 0 0 0 0 0 0 0 0 0 0 0 0 0 0 0 0 0 0 0 0 0 -0 -0 -0 0 0 0 -0 -0 -0 0 -0 -0 -0 -0 -0
0 0 0 0 0 0 0 0 0 0 0 0 0 0 0 0 0 0 0 0 0 0 0 0 0 0 0 0 0 -0 -0 -0 0 0 0 -0 -0 -0 -0 -0 -0 -0 -0
0 0 0 0 0 0 0 0 0 0 0 0 0 0 0 0 0 0 0 0 0 0 0 0 0 0 0 0 0 0 0 0 0 0 0 -0 -0 -0 0 -0 -0 -0 0
0 0 0 0 0 0 0 0 0 0 0 0 0 0 0 0 0 0 0 0 0 0 0 0 0 0 0 0 0 0 0 0 0 0 0 0 0 0 0 -0 -0 -0 -0
0 0 0 0 0 0 0 0 0 0 0 0 0 0 0 0 0 0 0 0 0 0 0 0 0 0 0 -0 0 0 0 0 0 0 0 0 0 0 -0 -0 -0 -0 -0
0 0 0 0 0 0 0 0 0 0 0 0 0 0 0 0 0 0 0 0 0 0 0 0 0 0 -0 0 0 0 0 -0 0 0 -0 -0 -0 -0 -0 -0 -0 0 -0
0 0 0 0 0 0 0 0 0 0 0 0 0 0 0 0 0 0 0 0 0 0 0 0 0 0 -0 -0 0 0 -0 -0 0 0 0 0 0 -0 -0 -0 -0 0 0
0 0 0 0 0 0 0 0 0 0 0 0 0 0 0 0 0 0 0 0 0 0 0 0 0 0 0 0 0 -0 -0 0 0 0 0 0 0 -0 0 -0 -0 -0 0
0 0 0 0 0 0 0 0 0 0 0 0 0 0 0 0 0 0 0 0 0 0 0 0 0 0 0 0 0 0 0 0 0 0 0 0 0 0 0 0 0 -0 -0
0 0 0 0 0 0 0 0 0 0 0 0 0 0 0 0 0 0 0 0 0 0 -0 0 0 0 0 0 0 0 0 0 0 0 0 0 0 0 0 0 0 0 -0
0 0 0 0 0 0 0 0 0 0 0 0 0 0 0 0 0 0 0 0 0 -0 -0 -0 0 0 0 0 0 0 0 0 0 0 0 0 0 0 0 0 0 0 0
0 0 0 0 0 0 0 0 0 0 0 0 0 0 0 0 0 0 0 0 -0 -0 -0 -0 0 0 0 0 0 0 0 0 0 0 0 0 0 0 0 0 0 0 0
0 0 0 0 0 0 0 0 0 0 0 0 0 0 0 0 0 0 0 0 0 0 -0 -0 0 0 0 -0 0 0 0 0 0 -0 -0 0 0 0 0 0 0 0 0
0 0 0 0 0 0 0 0 0 0 0 0 0 0 0 0 0 0 0 0 -0 -0 -0 -0 0 0 -0 -0 0 0 0 0 0 0 0 0 0 0 0 0 0 0 0
0 0 0 0 0 0 0 0 0 0 0 0 0 0 0 0 0 0 0 0 -0 -0 -0 0 0 0 -0 -0 -0 0 0 0 0 0 0 0 0 0 0 0 0 0 0
0 0 0 0 0 0 0 0 0 0 0 0 0 0 0 0 0 0 0 -0 -0 -0 -0 0 0 0 0 -0 -0 -0 -0 0 0 0 0 0 0 0 0 0 0 0 0
0 0 0 0 0 0 0 0 0 0 0 0 0 0 0 0 0 0 -0 -0 -0 -0 -0 -0 0 0 0 -0 -0 -0 -0 0 0 0 0 0 0 0 0 0 0 0 0
0 0 0 0 0 0 0 0 0 0 0 0 0 0 0 0 0 0 -0 -0 -0 -0 -0 -0 0 0 0 -0 -0 -0 -0 0 0 0 0 0 0 0 0 0 0 0 0
0 0 0 0 0 0 0 0 0 0 0 0 0 0 0 0 0 0 -0 -0 -0 -0 -0 -0 0 -0 -0 -0 0 -0 0 0 0 0 0 0 0 0 0 0 0 0 0
0 0 0 0 0 0 0 0 0 0 0 0 0 0 0 0 0 -0 -0 -0 -0 0 0 0 0 -0 -0 -0 -0 -0 -0 -0 0 0 0 0 0 0 0 0 0 0 0
0 0 0 0 0 0 0 0 0 0 0 0 0 0 0 0 0 0 -0 -0 0 0 0 0 0 -0 -0 -0 -0 -0 -0 -0 0 0 0 0 0 0 0 0 0 0 0
Wind_Speed_500mb
98 86 73 63 55 49 44 43 43 48 54 59 66 69 72 72 73 74 77 78 79 80 77 78 87 81 85 88 88 90 93 95 97 119 98 77 92 99 83 77 82 87 99
98 85 72 62 53 46 42 42 45 48 52 59 65 70 71 73 73 75 78 79 79 82 79 73 85 80 83 83 85 90 88 87 87 101 84 96 108 92 70 70 69 78 81
96 84 73 61 51 44 42 42 44 46 51 58 64 67 70 73 74 75 79 80 78 77 74 76 86 81 85 82 81 87 86 87 84 80 96 88 93 87 69 57 72 83 96
93 82 68 56 47 43 41 39 41 45 50 58 61 64 70 73 75 76 77 78 77 72 74 82 87 86 87 84 84 85 86 84 85 79 83 78 87 65 67 77 72 62 79
90 76 63 53 45 41 37 37 39 44 50 54 59 63 69 74 75 76 80 76 74 80 79 83 83 85 82 82 85 89 86 86 79 74 72 72 80 62 54 53 64 72 68
86 69 59 49 41 38 35 34 36 42 47 52 58 65 70 74 77 81 73 76 74 79 90 91 82 83 85 79 81 86 89 91 92 87 81 71 80 57 45 49 62 72 67
77 66 55 45 40 37 34 32 34 40 46 52 57 63 69 72 72 77 66 72 80 84 87 92 92 82 78 84 81 79 82 84 87 92 94 88 72 74 51 52 65 64 77
75 63 52 43 37 34 31 30 31 39 45 50 56 60 68 69 71 73 64 74 83 80 84 92 92 91 88 78 78 83 86 93 88 87 99 95 89 84 72 62 70 69 78
75 62 51 41 35 31 26 26 31 39 46 49 54 60 66 65 68 63 64 79 81 92 90 91 90 86 79 73 78 86 90 87 89 84 83 80 88 75 67 69 73 70 77
69 58 48 39 33 27 22 25 32 39 45 48 52 57 61 67 69 59 62 73 89 93 94 90 86 88 84 77 79 83 87 86 82 84 84 73 78 81 74 70 82 77 70
61 50 41 34 27 20 20 23 30 37 42 45 51 56 58 60 66 57 60 74 86 97 97 99 88 77 75 74 76 83 87 76 77 74 76 69 67 77 101 100 96 88 84
56 46 37 28 19 14 17 22 29 36 40 44 48 50 51 57 60 59 67 72 78 90 95 91 87 85 84 83 80 75 70 68 73 77 68 69 63 69 90 95 94 96 96
48 40 32 23 16 12 15 21 27 33 38 43 41 44 51 55 63 63 73 76 78 79 77 81 77 69 68 62 55 59 64 72 71 72 74 73 72 77 68 71 85 94 93
45 37 27 21 14 10 13 19 25 29 33 37 36 41 48 57 63 77 85 93 87 76 81 78 59 58 54 35 30 40 44 52 63 68 69 69 60 67 73 77 86 94 101
46 35 29 22 16 11 10 14 20 24 29 29 30 34 45 54 62 65 72 80 76 72 70 65 64 65 67 59 42 36 29 29 55 61 72 71 65 72 69 71 78 89 75
43 39 30 22 16 9 4 9 16 20 23 25 25 26 37 42 53 58 63 65 60 64 70 70 74 72 68 70 65 54 42 33 23 44 52 71 71 68 73 74 75 73 72
44 34 28 23 17 11 6 2 3 13 17 21 25 29 34 42 47 53 57 60 57 68 83 82 74 77 72 71 69 62 56 51 43 39 41 37 57 66 74 73 63 56 84
46 37 30 24 16 9 4 3 8 8 11 15 21 28 33 41 45 50 57 61 75 81 82 84 85 79 84 72 75 73 62 63 50 41 43 46 47 51 61 60 54 61 89
46 38 32 25 19 12 6 2 5 12 18 23 23 22 25 36 41 48 56 68 76 82 83 84 86 87 89 83 81 77 72 69 62 46 38 39 43 49 50 53 52 81 94
47 40 33 27 21 17 11 6 5 10 15 23 29 31 35 40 44 52 59 66 72 78 81 84 88 90 95 91 97 95 88 86 73 54 41 36 33 32 43 51 63 84 95
48 40 35 30 26 19 15 11 9 11 16 21 24 27 29 35 43 49 56 63 69 75 78 84 87 92 96 94 98 96 91 92 83 63 46 34 30 26 36 49 55 83 95
45 40 37 34 28 23 18 14 12 13 14 16 19 22 25 30 36 42 49 56 63 68 72 78 84 90 94 93 97 98 90 95 87 71 54 41 32 20 31 45 56 68 91
46 43 42 36 29 24 21 17 15 13 13 14 16 20 24 29 34 40 45 50 57 65 68 74 78 89 96 99 98 102 99 105 89 68 57 47 31 16 26 36 56 61 75
48 45 40 35 31 27 23 19 16 13 12 11 14 19 23 28 33 38 43 46 50 58 63 69 75 81 94 104 109 107 100 101 87 68 54 47 34 15 19 33 49 66 78
49 45 42 36 33 30 26 22 17 13 9 8 12 16 22 26 30 35 41 44 48 53 57 63 71 78 84 92 110 114 100 102 96 87 68 54 41 20 4 28 39 62 73
49 45 40 37 36 32 27 22 16 10 6 5 10 15 21 25 30 34 39 43 45 48 53 59 65 72 78 82 92 112 108 99 95 96 92 75 59 43 17 11 31 45 61
Wind_Direction_500mb
226 228 231 238 247 257 270 281 286 291 296 301 304 307 308 308 304 301 298 296 294 293 287 282 280 277 273 271 268 266 262 264 266 271 267 273 269 262 265 265 269 266 258
225 226 229 236 246 258 270 278 284 292 298 304 306 308 308 307 305 304 302 300 297 294 290 284 281 281 276 273 269 266 264 267 266 271 276 273 268 267 265 261 269 273 269
221 223 227 234 245 257 266 274 284 295 302 304 307 308 310 309 308 308 304 301 298 295 291 287 285 282 277 275 270 269 267 269 267 269 271 270 264 270 260 265 272 273 273
219 221 226 234 244 255 265 276 289 296 301 305 308 310 311 312 312 311 307 302 300 295 291 287 286 282 278 276 273 271 271 271 274 272 265 274 264 268 261 270 277 284 278
216 218 224 231 241 253 265 278 288 296 302 306 310 312 313 314 315 313 307 305 301 299 296 292 288 283 278 273 272 272 272 272 273 272 269 273 265 266 257 264 268 273 285
213 215 222 230 241 252 265 278 287 296 303 309 313 315 317 317 319 315 310 306 301 302 302 299 293 289 284 276 271 267 264 267 269 269 269 268 263 280 268 265 270 278 288
209 213 220 228 239 251 263 273 287 300 307 313 315 315 315 316 316 316 309 306 306 303 301 300 299 294 287 280 275 271 267 264 262 265 264 260 265 262 275 275 276 281 276
206 210 217 226 238 249 261 277 296 306 308 313 315 315 315 319 318 319 314 308 305 307 303 300 296 293 284 279 276 273 273 274 275 265 255 259 259 263 257 265 273 276 284
203 206 212 221 232 246 263 286 301 307 311 314 317 319 317 319 325 325 315 313 312 306 306 302 298 292 292 282 277 274 272 271 271 266 261 259 253 252 250 262 273 280 286
201 203 206 214 226 240 263 289 303 309 314 318 319 318 318 327 336 319 320 316 312 309 309 304 297 292 287 281 276 274 272 274 270 270 266 257 250 243 246 249 259 267 271
198 203 207 211 221 241 273 295 307 311 315 319 320 320 329 335 333 323 324 321 317 313 309 306 303 301 293 283 272 269 268 269 271 266 264 264 250 247 242 246 252 257 265
192 198 205 210 219 251 284 304 311 315 319 322 322 329 333 334 333 331 328 325 321 314 311 310 310 306 298 285 274 270 264 261 266 261 260 253 249 251 249 249 252 256 261
191 196 199 204 222 252 291 307 314 319 325 329 331 332 332 333 344 338 333 331 327 321 319 313 315 319 316 312 273 265 262 259 265 255 249 251 246 247 235 245 247 250 258
190 193 193 206 218 252 290 310 318 328 330 333 333 333 333 339 345 343 340 338 333 333 325 328 333 335 338 325 320 295 283 257 248 256 252 252 253 250 248 241 245 249 253
189 183 197 204 211 231 279 311 324 335 334 334 333 337 333 343 344 339 341 342 339 336 330 349 353 351 350 348 340 323 307 286 261 252 249 248 248 253 244 242 246 256 251
183 186 189 195 205 213 263 327 336 335 333 334 343 343 338 341 341 344 346 348 346 348 3 6 355 354 347 349 347 340 335 315 285 249 265 253 245 243 247 254 258 247 246
186 182 185 192 198 187 168 172 303 328 334 346 356 354 354 350 351 351 352 0 4 5 17 13 0 350 349 349 349 346 336 330 313 286 268 260 259 262 259 266 265 259 209
181 179 184 190 191 187 153 32 355 352 11 24 7 359 3 8 4 4 5 7 15 21 20 14 3 353 351 348 350 348 347 339 330 307 286 273 260 262 270 269 253 224 189
177 176 179 182 183 172 135 20 346 17 12 15 21 14 9 16 11 14 18 19 18 18 18 17 13 0 353 354 350 350 355 342 338 324 303 283 268 262 260 253 245 202 182
174 175 176 176 173 159 139 140 81 41 25 22 17 12 18 12 13 17 21 22 21 21 20 18 17 9 2 359 353 354 359 347 348 338 321 303 285 263 247 234 214 190 181
176 171 172 170 166 151 147 132 95 57 36 32 27 21 24 14 18 18 19 22 21 21 20 18 18 17 10 5 355 355 357 347 350 344 337 322 298 268 221 226 208 191 185
173 172 170 166 160 155 150 137 112 82 60 45 36 30 24 19 18 17 19 20 22 20 20 18 19 20 17 11 357 358 358 350 355 353 345 332 311 267 213 213 204 193 184
172 173 169 163 160 157 154 141 119 103 80 62 46 37 28 24 20 15 13 15 19 19 20 20 20 21 22 19 5 8 6 358 0 356 347 343 331 286 207 204 211 197 193
172 172 167 163 163 162 158 145 133 117 95 67 46 35 26 22 20 16 13 12 17 20 21 20 23 22 23 21 12 14 16 9 10 6 5 0 349 324 218 200 213 208 209
172 170 169 166 168 168 160 154 145 133 109 77 50 35 24 15 16 16 14 14 18 18 20 21 21 22 21 21 13 16 17 19 19 21 18 18 15 12 196 201 213 212 210
173 171 169 171 174 169 164 161 155 147 131 66 36 27 20 8 6 8 11 11 14 18 18 17 19 22 25 21 12 13 17 21 23 29 29 28 28 27 29 181 201 208 215
Wind_Speed_850mb
98 86 73 63 55 49 44 43 43 48 54 59 66 69 72 72 73 74 77 78 79 80 77 78 87 81 85 88 88 90 93 95 97 119 98 77 92 99 83 77 82 87 99
98 85 72 62 53 46 42 42 45 48 52 59 65 70 71 73 73 75 78 79 79 82 79 73 85 80 83 83 85 90 88 87 87 101 84 96 108 92 70 70 69 78 81
96 84 73 61 51 44 42 42 44 46 51 58 64 67 70 73 74 75 79 80 78 77 74 76 86 81 85 82 81 87 86 87 84 80 96 88 93 87 69 57 72 83 96
93 82 68 56 47 43 41 39 41 45 50 58 61 64 70 73 75 76 77 78 77 72 74 82 87 86 87 84 84 85 86 84 85 79 83 78 87 65 67 77 72 62 79
90 76 63 53 45 41 37 37 39 44 50 54 59 63 69 74 75 76 80 76 74 80 79 83 83 85 82 82 85 89 86 86 79 74 72 72 80 62 54 53 64 72 68
86 69 59 49 41 38 35 34 36 42 47 52 58 65 70 74 77 81 73 76 74 79 90 91 82 83 85 79 81 86 89 91 92 87 81 71 80 57 45 49 62 72 67
77 66 55 45 40 37 34 32 34 40 46 52 57 63 69 72 72 77 66 72 80 84 87 92 92 82 78 84 81 79 82 84 87 92 94 88 72 74 51 52 65 64 77
75 63 52 43 37 34 31 30 31 39 45 50 56 60 68 69 71 73 64 74 83 80 84 92 92 91 88 78 78 83 86 93 88 87 99 95 89 84 72 62 70 69 78
75 62 51 41 35 31 26 26 31 39 46 49 54 60 66 65 68 63 64 79 81 92 90 91 90 86 79 73 78 86 90 87 89 84 83 80 88 75 67 69 73 70 77
69 58 48 39 33 27 22 25 32 39 45 48 52 57 61 67 69 59 62 73 89 93 94 90 86 88 84 77 79 83 87 86 82 84 84 73 78 81 74 70 82 77 70
61 50 41 34 27 20 20 23 30 37 42 45 51 56 58 60 66 57 60 74 86 97 97 99 88 77 75 74 76 83 87 76 77 74 76 69 67 77 101 100 96 88 84
56 46 37 28 19 14 17 22 29 36 40 44 48 50 51 57 60 59 67 72 78 90 95 91 87 85 84 83 80 75 70 68 73 77 68 69 63 69 90 95 94 96 96
48 40 32 23 16 12 15 21 27 33 38 43 41 44 51 55 63 63 73 76 78 79 77 81 77 69 68 62 55 59 64 72 71 72 74 73 72 77 68 71 85 94 93
45 37 27 21 14 10 13 19 25 29 33 37 36 41 48 57 63 77 85 93 87 76 81 78 59 58 54 35 30 40 44 52 63 68 69 69 60 67 73 77 86 94 101
46 35 29 22 16 11 10 14 20 24 29 29 30 34 45 54 62 65 72 80 76 72 70 65 64 65 67 59 42 36 29 29 55 61 72 71 65 72 69 71 78 89 75
43 39 30 22 16 9 4 9 16 20 23 25 25 26 37 42 53 58 63 65 60 64 70 70 74 72 68 70 65 54 42 33 23 44 52 71 71 68 73 74 75 73 72
44 34 28 23 17 11 6 2 3 13 17 21 25 29 34 42 47 53 57 60 57 68 83 82 74 77 72 71 69 62 56 51 43 39 41 37 57 66 74 73 63 56 84
46 37 30 24 16 9 4 3 8 8 11 15 21 28 33 41 45 50 57 61 75 81 82 84 85 79 84 72 75 73 62 63 50 41 43 46 47 51 61 60 54 61 89
46 38 32 25 19 12 6 2 5 12 18 23 23 22 25 36 41 48 56 68 76 82 83 84 86 87 89 83 81 77 72 69 62 46 38 39 43 49 50 53 52 81 94
47 40 33 27 21 17 11 6 5 10 15 23 29 31 35 40 44 52 59 66 72 78 81 84 88 90 95 91 97 95 88 86 73 54 41 36 33 32 43 51 63 84 95
48 40 35 30 26 19 15 11 9 11 16 21 24 27 29 35 43 49 56 63 69 75 78 84 87 92 96 94 98 96 91 92 83 63 46 34 30 26 36 49 55 83 95
45 40 37 34 28 23 18 14 12 13 14 16 19 22 25 30 36 42 49 56 63 68 72 78 84 90 94 93 97 98 90 95 87 71 54 41 32 20 31 45 56 68 91
46 43 42 36 29 24 21 17 15 13 13 14 16 20 24 29 34 40 45 50 57 65 68 74 78 89 96 99 98 102 99 105 89 68 57 47 31 16 26 36 56 61 75
48 45 40 35 31 27 23 19 16 13 12 11 14 19 23 28 33 38 43 46 50 58 63 69 75 81 94 104 109 107 100 101 87 68 54 47 34 15 19 33 49 66 78
49 45 42 36 33 30 26 22 17 13 9 8 12 16 22 26 30 35 41 44 48 53 57 63 71 78 84 92 110 114 100 102 96 87 68 54 41 20 4 28 39 62 73
49 45 40 37 36 32 27 22 16 10 6 5 10 15 21 25 30 34 39 43 45 48 53 59 65 72 78 82 92 112 108 99 95 96 92 75 59 43 17 11 31 45 61
Wind_Direction_850mb
226 228 231 238 247 257 270 281 286 291 296 301 304 307 308 308 304 301 298 296 294 293 287 282 280 277 273 271 268 266 262 264 266 271 267 273 269 262 265 265 269 266 258
225 226 229 236 246 258 270 278 284 292 298 304 306 308 308 307 305 304 302 300 297 294 290 284 281 281 276 273 269 266 264 267 266 271 276 273 268 267 265 261 269 273 269
221 223 227 234 245 257 266 274 284 295 302 304 307 308 310 309 308 308 304 301 298 295 291 287 285 282 277 275 270 269 267 269 267 269 271 270 264 270 260 265 272 273 273
219 221 226 234 244 255 265 276 289 296 301 305 308 310 311 312 312 311 307 302 300 295 291 287 286 282 278 276 273 271 271 271 274 272 265 274 264 268 261 270 277 284 278
216 218 224 231 241 253 265 278 288 296 302 306 310 312 313 314 315 313 307 305 301 299 296 292 288 283 278 273 272 272 272 272 273 272 269 273 265 266 257 264 268 273 285
213 215 222 230 241 252 265 278 287 296 303 309 313 315 317 317 319 315 310 306 301 302 302 299 293 289 284 276 271 267 264 267 269 269 269 268 263 280 268 265 270 278 288
209 213 220 228 239 251 263 273 287 300 307 313 315 315 315 316 316 316 309 306 306 303 301 300 299 294 287 280 275 271 267 264 262 265 264 260 265 262 275 275 276 281 276
206 210 217 226 238 249 261 277 296 306 308 313 315 315 315 319 318 319 314 308 305 307 303 300 296 293 284 279 276 273 273 274 275 265 255 259 259 263 257 265 273 276 284
203 206 212 221 232 246 263 286 301 307 311 314 317 319 317 319 325 325 315 313 312 306 306 302 298 292 292 282 277 274 272 271 271 266 261 259 253 252 250 262 273 280 286
201 203 206 214 226 240 263 289 303 309 314 318 319 318 318 327 336 319 320 316 312 309 309 304 297 292 287 281 276 274 272 274 270 270 266 257 250 243 246 249 259 267 271
198 203 207 211 221 241 273 295 307 311 315 319 320 320 329 335 333 323 324 321 317 313 309 306 303 301 293 283 272 269 268 269 271 266 264 264 250 247 242 246 252 257 265
192 198 205 210 219 251 284 304 311 315 319 322 322 329 333 334 333 331 328 325 321 314 311 310 310 306 298 285 274 270 264 261 266 261 260 253 249 251 249 249 252 256 261
191 196 199 204 222 252 291 307 314 319 325 329 331 332 332 333 344 338 333 331 327 321 319 313 315 319 316 312 273 265 262 259 265 255 249 251 246 247 235 245 247 250 258
190 193 193 206 218 252 290 310 318 328 330 333 333 333 333 339 345 343 340 338 333 333 325 328 333 335 338 325 320 295 283 257 248 256 252 252 253 250 248 241 245 249 253
189 183 197 204 211 231 279 311 324 335 334 334 333 337 333 343 344 339 341 342 339 336 330 349 353 351 350 348 340 323 307 286 261 252 249 248 248 253 244 242 246 256 251
183 186 189 195 205 213 263 327 336 335 333 334 343 343 338 341 341 344 346 348 346 348 3 6 355 354 347 349 347 340 335 315 285 249 265 253 245 243 247 254 258 247 246
186 182 185 192 198 187 168 172 303 328 334 346 356 354 354 350 351 351 352 0 4 5 17 13 0 350 349 349 349 346 336 330 313 286 268 260 259 262 259 266 265 259 209
181 179 184 190 191 187 153 32 355 352 11 24 7 359 3 8 4 4 5 7 15 21 20 14 3 353 351 348 350 348 347 339 330 307 286 273 260 262 270 269 253 224 189
177 176 179 182 183 172 135 20 346 17 12 15 21 14 9 16 11 14 18 19 18 18 18 17 13 0 353 354 350 350 355 342 338 324 303 283 268 262 260 253 245 202 182
174 175 176 176 173 159 139 140 81 41 25 22 17 12 18 12 13 17 21 22 21 21 20 18 17 9 2 359 353 354 359 347 348 338 321 303 285 263 247 234 214 190 181
176 171 172 170 166 151 147 132 95 57 36 32 27 21 24 14 18 18 19 22 21 21 20 18 18 17 10 5 355 355 357 347 350 344 337 322 298 268 221 226 208 191 185
173 172 170 166 160 155 150 137 112 82 60 45 36 30 24 19 18 17 19 20 22 20 20 18 19 20 17 11 357 358 358 350 355 353 345 332 311 267 213 213 204 193 184
172 173 169 163 160 157 154 141 119 103 80 62 46 37 28 24 20 15 13 15 19 19 20 20 20 21 22 19 5 8 6 358 0 356 347 343 331 286 207 204 211 197 193
172 172 167 163 163 162 158 145 133 117 95 67 46 35 26 22 20 16 13 12 17 20 21 20 23 22 23 21 12 14 16 9 10 6 5 0 349 324 218 200 213 208 209
172 170 169 166 168 168 160 154 145 133 109 77 50 35 24 15 16 16 14 14 18 18 20 21 21 22 21 21 13 16 17 19 19 21 18 18 15 12 196 201 213 212 210
173 171 169 171 174 169 164 161 155 147 131 66 36 27 20 8 6 8 11 11 14 18 18 17 19 22 25 21 12 13 17 21 23 29 29 28 28 27 29 181 201 208 215